Notices

What's New in latest Release from April 7th, 2021:

- Updated Glossary, including Speed of Maximum Gust, and Total Hourly Precipitation

- Updated national and regional climate services offices contacts and prices information

- Addition of station inventory lists for 1981-2010, 1971-2000, and 1961-1990 Normals.

If you haven't already, please take our survey and provide feedback about our website: https://eccc.sondage-survey.ca/f/LanguageSelection.aspx?s=442ca660-fcf1-47c0-95a9-59707d6fd709

Hourly Data Report for September 21, 2017

VICTORIA UNIVERSITY CS
BRITISH COLUMBIA

48°27'25.200" N
123°18'16.600" W
60.10 m
1018598
71783
WYJ

Download Data

Hourly Data (September 2017)
Hourly Data Report for September 21, 2017
TIME
LST
Temp Definition
°C
Dew Point Definition
°C
Rel Hum Definition
%
Precip. Amount Definition
mm

Wind Dir Definition
10's deg

Wind Spd Definition
km/h
Visibility Definition
km
Stn Press Definition
kPa
Hmdx Definition


Wind Chill Definition


Weather Definition


00:00 10.5 6.1 74 0.0 24 5   100.22     LegendNANA
01:00 8.6 6.2 85 0.0 0 1   100.28     LegendNANA
02:00 8.5 7.0 90 0.0   0   100.32     LegendNANA
03:00 7.9 6.9 93 0.0 1 3   100.38     LegendNANA
04:00 9.8 8.2 90 0.0 2 2   100.42     LegendNANA
05:00 8.9 8.0 94 0.0 33 3   100.48     LegendNANA
06:00 8.8 8.1 95 0.0 27 1   100.51     LegendNANA
07:00 9.5 8.9 96 0.0 36 4   100.57     LegendNANA
08:00 12.1 9.5 84 0.0 3 4   100.60     LegendNANA
09:00 13.5 9.7 78 0.0 3 4   100.65     LegendNANA
10:00 14.4 7.8 65 0.0 36 7   100.68     LegendNANA
11:00 15.7 7.2 57 0.0 34 6   100.68     LegendNANA
12:00 16.3 8.8 61 0.0 8 5   100.68     LegendNANA
13:00 15.7 8.8 63 0.0 12 3   100.70     LegendNANA
14:00 17.2 6.4 49 0.0 9 5   100.70     LegendNANA
15:00 17.0 8.1 56 0.0 11 2   100.72     LegendNANA
16:00 17.2 8.2 56 0.0 12 3   100.73     LegendNANA
17:00 15.6 7.3 58 0.0 21 3   100.74     LegendNANA
18:00 14.4 7.1 62 0.0 23 3   100.77     LegendNANA
19:00 13.3 7.2 66 0.0 26 1   100.81     LegendNANA
20:00 12.7 7.3 70 0.0 24 3   100.83     LegendNANA
21:00 13.2 6.8 65 0.0 26 3   100.83     LegendNANA
22:00 13.5 6.7 63 0.0 30 5   100.83     LegendNANA
23:00 12.4 7.7 73 0.0 33 3   100.87     LegendNANA

Notes on Data Quality.

Legend

  • E = Estimated
  • M = Missing
  • NA = Not Available*
  • [empty] = Indicates an unobserved value
Date modified: